Terminal Aerodrome Forecast
Issued by NWS

Current Version | Previous Version | Text Only | Print | Product List | Glossary On
Versions: 1 2 3 4 5 6 7 8 9 10 11 12 13 14 15 16 17 18 19 20 21 22 23 24 25 26 27 28 29 30 31 32 33 34 35 36 37 38 39 40 41 42 43 44 45 46 47 48 49 50
000
FTUS41 KCTP 270821 AAA
TAFAOO
TAF AMD
KAOO 270821Z 2708/2806 00000KT P6SM SKC
     FM271000 VRB03KT 4SM BR SKC
     FM271330 26004KT 6SM HZ BKN035
     FM271500 25004KT P6SM BKN040 BKN100
     FM271900 29009G17KT P6SM VCTS BKN035CB BKN050
     FM272300 32008KT P6SM SCT070=

USA.gov is the U.S. government's official web portal to all federal, state and local government web resources and services.